TimeCST,TemperatureF,Dew PointF,Humidity,Sea Level PressureIn,VisibilityMPH,Wind Direction,Wind SpeedMPH,Gust SpeedMPH,PrecipitationIn,Events,Conditions,WindDirDegrees,DateUTC
12:53 AM,55.0,52.0,89,30.07,10.0,Calm,Calm,-,N/A,,Overcast,0,2012-12-06 06:53:00
1:53 AM,53.1,51.1,93,30.05,10.0,Calm,Calm,-,N/A,,Clear,0,2012-12-06 07:53:00
2:53 AM,52.0,50.0,93,30.05,10.0,Calm,Calm,-,N/A,,Clear,0,2012-12-06 08:53:00
3:53 AM,51.1,50.0,96,30.04,10.0,Calm,Calm,-,N/A,,Clear,0,2012-12-06 09:53:00
4:53 AM,53.1,51.1,93,30.04,10.0,Calm,Calm,-,N/A,,Overcast,0,2012-12-06 10:53:00
5:53 AM,52.0,50.0,93,30.06,10.0,Calm,Calm,-,N/A,,Overcast,0,2012-12-06 11:53:00
6:53 AM,51.1,50.0,96,30.08,9.0,Calm,Calm,-,N/A,,Clear,0,2012-12-06 12:53:00
7:53 AM,57.9,54.0,87,30.08,10.0,ENE,3.5,-,N/A,,Clear,70,2012-12-06 13:53:00
8:53 AM,64.0,55.9,75,30.09,10.0,Variable,3.5,-,N/A,,Clear,0,2012-12-06 14:53:00
9:53 AM,69.1,57.9,68,30.07,10.0,East,10.4,16.1,N/A,,Clear,100,2012-12-06 15:53:00
10:53 AM,72.0,57.9,61,30.05,10.0,NE,8.1,-,N/A,,Clear,50,2012-12-06 16:53:00
11:53 AM,73.0,57.0,57,30.02,10.0,NE,5.8,-,N/A,,Partly Cloudy,50,2012-12-06 17:53:00
12:53 PM,73.9,57.0,55,30.00,10.0,Variable,6.9,-,N/A,,Mostly Cloudy,0,2012-12-06 18:53:00
1:53 PM,75.0,55.9,51,29.98,10.0,East,5.8,-,N/A,,Scattered Clouds,90,2012-12-06 19:53:00
2:53 PM,73.9,57.0,55,29.98,10.0,ENE,6.9,-,N/A,,Overcast,70,2012-12-06 20:53:00
3:53 PM,73.0,57.0,57,29.99,10.0,NE,8.1,-,N/A,,Clear,50,2012-12-06 21:53:00
4:53 PM,68.0,57.9,70,29.99,10.0,NE,3.5,-,N/A,,Partly Cloudy,50,2012-12-06 22:53:00
5:53 PM,66.0,57.9,75,30.00,10.0,ENE,3.5,-,N/A,,Mostly Cloudy,60,2012-12-06 23:53:00
6:53 PM,64.9,57.9,78,30.01,10.0,NE,6.9,-,N/A,,Scattered Clouds,50,2012-12-07 00:53:00
7:53 PM,64.0,57.9,80,30.02,10.0,ENE,4.6,-,N/A,,Mostly Cloudy,60,2012-12-07 01:53:00
8:53 PM,64.0,57.9,80,30.01,10.0,ENE,5.8,-,N/A,,Clear,70,2012-12-07 02:53:00
9:53 PM,62.1,57.9,86,30.02,10.0,ENE,4.6,-,N/A,,Mostly Cloudy,60,2012-12-07 03:53:00
10:37 PM,62.6,59.0,88,30.03,10.0,NE,4.6,-,N/A,,Overcast,50,2012-12-07 04:37:00
10:53 PM,61.0,59.0,93,30.03,10.0,ENE,5.8,-,N/A,,Overcast,60,2012-12-07 04:53:00
11:09 PM,62.6,59.0,88,30.02,10.0,ENE,6.9,-,N/A,,Mostly Cloudy,60,2012-12-07 05:09:00
11:53 PM,59.0,57.9,96,30.02,10.0,NE,5.8,-,N/A,,Partly Cloudy,50,2012-12-07 05:53:00